Zurück zum Katalog

DELTA 1 DEB

AktivSSO
NORAD 7161·DEBRIS·🇺🇸 United States

Gestartet Nov 6, 1973 von Vandenberg Space Force Base

Loading…

Nächste Überflüge (nächste 24 Stunden)

TLE

AktuellSource: Space-Track

Epoche: Sep 14, 2026, 14:15 UTC

1 07161U 73086DZ  26257.59395461 -.00000024  00000-0  16332-3 0  9998
2 07161 102.2030 287.0954 0014480 318.2139 196.2356 12.41260559393882

Verfolge DELTA 1 DEB in Echtzeit mit AllMySat

Download on the App Store